| time (UTC) | temp F | wind direction | speed knots | gust knots | rain 1hr in | rain 24hr in | rain mn in | humidity % | barometer mb |
| 20260505140438 | 55 | 302 | 6.1 | 11.3 | 0.00 | 0.00 | 0.00 | 52 | 1015.4 |
| 20260505124852 | 56 | 201 | 0.0 | 0.0 | 0.00 | 0.00 | 0.00 | 38 | 1014.2 |
| 20260505124349 | 56 | 201 | 0.0 | 0.0 | 0.00 | 0.00 | 0.00 | 38 | 1014.5 |
| 20260505123845 | 56 | 201 | 0.0 | 0.0 | 0.00 | 0.00 | 0.00 | 38 | 1014.6 |
| 20260505123342 | 56 | 204 | 0.0 | 0.9 | 0.00 | 0.00 | 0.00 | 38 | 1014.6 |
| 20260505122837 | 56 | 267 | 0.9 | 1.7 | 0.00 | 0.00 | 0.00 | 37 | 1014.6 |
| 20260505122335 | 56 | 246 | 0.9 | 1.7 | 0.00 | 0.00 | 0.00 | 37 | 1014.3 |
| 20260505121832 | 56 | 301 | 1.7 | 1.7 | 0.00 | 0.00 | 0.00 | 37 | 1014.2 |
| 20260505121329 | 57 | 281 | 1.7 | 1.7 | 0.00 | 0.00 | 0.00 | 36 | 1014.2 |
| 20260505120825 | 57 | 280 | 1.7 | 3.5 | 0.00 | 0.00 | 0.00 | 36 | 1014.2 |
| 20260505120321 | 57 | 267 | 1.7 | 5.2 | 0.00 | 0.00 | 0.00 | 35 | 1014.1 |
| 20260505115819 | 57 | 266 | 1.7 | 3.5 | 0.00 | 0.00 | 0.00 | 36 | 1014.0 |
| 20260505115317 | 57 | 263 | 1.7 | 3.5 | 0.00 | 0.00 | 0.00 | 35 | 1014.1 |
| 20260505114815 | 57 | 294 | 1.7 | 2.6 | 0.00 | 0.00 | 0.00 | 35 | 1014.3 |
| 20260505114311 | 57 | 288 | 0.9 | 2.6 | 0.00 | 0.00 | 0.00 | 35 | 1014.2 |
| 20260505113808 | 57 | 270 | 0.0 | 1.7 | 0.00 | 0.00 | 0.00 | 35 | 1014.0 |
| 20260505113304 | 57 | 290 | 0.9 | 2.6 | 0.00 | 0.00 | 0.00 | 35 | 1014.0 |
| 20260505112800 | 57 | 284 | 0.9 | 0.9 | 0.00 | 0.00 | 0.00 | 35 | 1014.0 |
| 20260505112258 | 57 | 271 | 0.0 | 0.9 | 0.00 | 0.00 | 0.00 | 35 | 1014.0 |
| 20260505111758 | 58 | 244 | 0.0 | 3.5 | 0.00 | 0.00 | 0.00 | 35 | 1013.9 |
| 20260505111254 | 57 | 291 | 2.6 | 6.1 | 0.00 | 0.00 | 0.00 | 35 | 1014.0 |
| 20260505110750 | 57 | 258 | 2.6 | 3.5 | 0.00 | 0.00 | 0.00 | 35 | 1013.9 |
| 20260505110248 | 58 | 253 | 2.6 | 5.2 | 0.00 | 0.00 | 0.00 | 34 | 1014.2 |
| 20260505101722 | 58 | 253 | 2.6 | 5.2 | 0.00 | 0.00 | 0.00 | 33 | 1014.1 |
| 20260505101218 | 58 | 248 | 1.7 | 3.5 | 0.00 | 0.00 | 0.00 | 33 | 1014.2 |
| 20260505100714 | 58 | 222 | 0.9 | 1.7 | 0.00 | 0.00 | 0.00 | 34 | 1014.1 |
| 20260505100211 | 58 | 204 | 0.0 | 0.9 | 0.00 | 0.00 | 0.00 | 34 | 1014.0 |
| 20260505095707 | 59 | 239 | 1.7 | 1.7 | 0.00 | 0.00 | 0.00 | 33 | 1014.1 |
| 20260505095205 | 59 | 242 | 1.7 | 3.5 | 0.00 | 0.00 | 0.00 | 33 | 1013.9 |
| 20260505094700 | 59 | 283 | 7.0 | 8.7 | 0.00 | 0.00 | 0.00 | 33 | 1014.0 |
| 20260505094157 | 58 | 242 | 4.3 | 5.2 | 0.00 | 0.00 | 0.00 | 33 | 1014.1 |
| 20260505093653 | 57 | 265 | 1.7 | 2.6 | 0.00 | 0.00 | 0.00 | 35 | 1013.9 |
| 20260505093151 | 58 | 221 | 1.7 | 2.6 | 0.00 | 0.00 | 0.00 | 35 | 1013.9 |
| 20260505092647 | 58 | 201 | 0.9 | 1.7 | 0.00 | 0.00 | 0.00 | 35 | 1014.0 |
| 20260505092146 | 58 | 192 | 0.9 | 0.9 | 0.00 | 0.00 | 0.00 | 35 | 1014.2 |
| 20260505091643 | 58 | 196 | 0.0 | 0.0 | 0.00 | 0.00 | 0.00 | 34 | 1014.2 |
| 20260505091141 | 59 | 214 | 0.0 | 0.0 | 0.00 | 0.00 | 0.00 | 33 | 1014.2 |
| 20260505090638 | 59 | 289 | 0.0 | 0.9 | 0.00 | 0.00 | 0.00 | 33 | 1014.1 |
| 20260505090137 | 59 | 291 | 0.9 | 1.7 | 0.00 | 0.00 | 0.00 | 33 | 1014.2 |
| 20260505085633 | 59 | 271 | 0.9 | 2.6 | 0.00 | 0.00 | 0.00 | 33 | 1014.2 |
| 20260505085132 | 60 | 281 | 3.5 | 3.5 | 0.00 | 0.00 | 0.00 | 32 | 1014.0 |
| 20260505084629 | 60 | 241 | 4.3 | 5.2 | 0.00 | 0.00 | 0.00 | 32 | 1014.2 |
| 20260505084128 | 60 | 277 | 4.3 | 5.2 | 0.00 | 0.00 | 0.00 | 32 | 1014.6 |
| 20260505083625 | 60 | 255 | 4.3 | 6.1 | 0.00 | 0.00 | 0.00 | 31 | 1014.7 |
| 20260505083121 | 60 | 296 | 2.6 | 5.2 | 0.00 | 0.00 | 0.00 | 32 | 1014.6 |
| 20260505082616 | 60 | 294 | 3.5 | 3.5 | 0.00 | 0.00 | 0.00 | 32 | 1014.7 |
| 20260505082114 | 61 | 286 | 5.2 | 7.0 | 0.00 | 0.00 | 0.00 | 31 | 1014.9 |
| 20260505081610 | 61 | 290 | 3.5 | 7.0 | 0.00 | 0.00 | 0.00 | 31 | 1014.7 |
| 20260505081108 | 60 | 261 | 3.5 | 7.0 | 0.00 | 0.00 | 0.00 | 31 | 1014.9 |
| 20260505080603 | 61 | 286 | 5.2 | 6.1 | 0.00 | 0.00 | 0.00 | 31 | 1014.8 |
| 20260505080100 | 61 | 271 | 2.6 | 7.8 | 0.00 | 0.00 | 0.00 | 31 | 1014.8 |
| 20260505075556 | 61 | 286 | 5.2 | 6.1 | 0.00 | 0.00 | 0.00 | 31 | 1015.0 |
| 20260505075053 | 62 | 283 | 6.1 | 8.7 | 0.00 | 0.00 | 0.00 | 30 | 1015.0 |
| 20260505074550 | 62 | 297 | 5.2 | 12.2 | 0.00 | 0.00 | 0.00 | 30 | 1014.8 |
| 20260505074047 | 62 | 239 | 6.1 | 8.7 | 0.00 | 0.00 | 0.00 | 30 | 1014.9 |
| 20260505073544 | 62 | 262 | 5.2 | 11.3 | 0.00 | 0.00 | 0.00 | 29 | 1014.6 |
| 20260505073043 | 62 | 282 | 11.3 | 13.0 | 0.00 | 0.00 | 0.00 | 29 | 1014.5 |
| 20260505072538 | 62 | 229 | 8.7 | 11.3 | 0.00 | 0.00 | 0.00 | 29 | 1014.5 |
| 20260505072035 | 63 | 257 | 7.0 | 11.3 | 0.00 | 0.00 | 0.00 | 29 | 1014.6 |
| 20260505071530 | 63 | 247 | 5.2 | 8.7 | 0.00 | 0.00 | 0.00 | 29 | 1014.5 |
| 20260505071029 | 63 | 262 | 7.8 | 13.9 | 0.00 | 0.00 | 0.00 | 28 | 1014.7 |
| 20260505070526 | 63 | 261 | 11.3 | 13.9 | 0.00 | 0.00 | 0.00 | 28 | 1014.7 |
| 20260505070022 | 62 | 270 | 8.7 | 11.3 | 0.00 | 0.00 | 0.00 | 28 | 1014.6 |
| 20260505065518 | 62 | 271 | 5.2 | 7.8 | 0.00 | 0.00 | 0.00 | 27 | 1014.3 |
| 20260505065015 | 63 | 264 | 6.1 | 7.8 | 0.00 | 0.00 | 0.00 | 27 | 1014.2 |
| 20260505064512 | 63 | 254 | 5.2 | 7.8 | 0.00 | 0.00 | 0.00 | 27 | 1014.1 |
| 20260505064010 | 63 | 276 | 5.2 | 7.0 | 0.00 | 0.00 | 0.00 | 27 | 1014.1 |
| 20260505063507 | 64 | 235 | 6.1 | 8.7 | 0.00 | 0.00 | 0.00 | 27 | 1014.2 |
| 20260505063008 | 64 | 277 | 4.3 | 7.8 | 0.00 | 0.00 | 0.00 | 26 | 1014.1 |
| 20260505062505 | 64 | 255 | 5.2 | 8.7 | 0.00 | 0.00 | 0.00 | 26 | 1014.1 |
| 20260505062002 | 64 | 247 | 4.3 | 8.7 | 0.00 | 0.00 | 0.00 | 26 | 1014.2 |
| 20260505061500 | 64 | 248 | 6.1 | 11.3 | 0.00 | 0.00 | 0.00 | 26 | 1013.9 |
| 20260505060957 | 64 | 286 | 7.8 | 9.6 | 0.00 | 0.00 | 0.00 | 25 | 1014.0 |
| 20260505060454 | 64 | 254 | 5.2 | 9.6 | 0.00 | 0.00 | 0.00 | 25 | 1013.9 |
| 20260505055950 | 64 | 257 | 5.2 | 9.6 | 0.00 | 0.00 | 0.00 | 24 | 1014.0 |
| 20260505055446 | 64 | 266 | 5.2 | 7.8 | 0.00 | 0.00 | 0.00 | 24 | 1013.9 |
| 20260505054943 | 65 | 262 | 7.8 | 9.6 | 0.00 | 0.00 | 0.00 | 24 | 1014.0 |
| 20260505054441 | 65 | 273 | 6.1 | 7.8 | 0.00 | 0.00 | 0.00 | 24 | 1014.1 |
| 20260505053939 | 65 | 252 | 6.1 | 7.8 | 0.00 | 0.00 | 0.00 | 23 | 1014.1 |
| 20260505053436 | 65 | 245 | 5.2 | 8.7 | 0.00 | 0.00 | 0.00 | 23 | 1014.1 |
| 20260505052932 | 66 | 266 | 6.1 | 8.7 | 0.00 | 0.00 | 0.00 | 23 | 1014.0 |
| 20260505052429 | 66 | 260 | 5.2 | 11.3 | 0.00 | 0.00 | 0.00 | 23 | 1013.9 |
| 20260505051926 | 66 | 248 | 8.7 | 12.2 | 0.00 | 0.00 | 0.00 | 22 | 1013.9 |
| 20260505051423 | 66 | 264 | 6.1 | 7.8 | 0.00 | 0.00 | 0.00 | 23 | 1014.0 |
| 20260505050922 | 66 | 231 | 4.3 | 8.7 | 0.00 | 0.00 | 0.00 | 23 | 1014.1 |
| 20260505050420 | 66 | 242 | 5.2 | 11.3 | 0.00 | 0.00 | 0.00 | 22 | 1013.9 |
| 20260505041347 | 66 | 257 | 2.6 | 3.5 | 0.00 | 0.00 | 0.00 | 24 | 1013.8 |
| 20260505040844 | 66 | 251 | 2.6 | 2.6 | 0.00 | 0.00 | 0.00 | 24 | 1013.8 |
| 20260505040342 | 67 | 247 | 0.9 | 3.5 | 0.00 | 0.00 | 0.00 | 24 | 1013.4 |
| 20260505035838 | 67 | 220 | 0.9 | 3.5 | 0.00 | 0.00 | 0.00 | 24 | 1013.6 |
| 20260505035334 | 67 | 232 | 2.6 | 3.5 | 0.00 | 0.00 | 0.00 | 24 | 1013.4 |
| 20260505034832 | 68 | 221 | 3.5 | 5.2 | 0.00 | 0.00 | 0.00 | 24 | 1013.6 |
| 20260505034328 | 68 | 266 | 3.5 | 6.1 | 0.00 | 0.00 | 0.00 | 23 | 1013.5 |
| 20260505033825 | 68 | 255 | 7.0 | 7.8 | 0.00 | 0.00 | 0.00 | 23 | 1013.2 |
| 20260505033322 | 68 | 271 | 6.1 | 9.6 | 0.00 | 0.00 | 0.00 | 23 | 1013.3 |
| 20260505032820 | 68 | 273 | 3.5 | 7.8 | 0.00 | 0.00 | 0.00 | 23 | 1013.2 |
| 20260505032316 | 68 | 284 | 5.2 | 7.0 | 0.00 | 0.00 | 0.00 | 23 | 1013.2 |
| 20260505031814 | 69 | 262 | 4.3 | 7.0 | 0.00 | 0.00 | 0.00 | 22 | 1013.1 |
| 20260505031310 | 69 | 261 | 6.1 | 9.6 | 0.00 | 0.00 | 0.00 | 22 | 1013.1 |
| 20260505030807 | 69 | 281 | 5.2 | 8.7 | 0.00 | 0.00 | 0.00 | 22 | 1012.7 |
| 20260505030303 | 69 | 277 | 8.7 | 9.6 | 0.00 | 0.00 | 0.00 | 22 | 1012.8 |
| 20260505025758 | 69 | 291 | 9.6 | 11.3 | 0.00 | 0.00 | 0.00 | 22 | 1013.1 |
| 20260505025256 | 69 | 241 | 8.7 | 13.0 | 0.00 | 0.00 | 0.00 | 21 | 1012.8 |
| 20260505024755 | 69 | 262 | 9.6 | 13.9 | 0.00 | 0.00 | 0.00 | 21 | 1012.9 |
| 20260505024252 | 70 | 273 | 10.4 | 13.9 | 0.00 | 0.00 | 0.00 | 21 | 1012.7 |
| 20260505023749 | 70 | 264 | 11.3 | 19.1 | 0.00 | 0.00 | 0.00 | 21 | 1012.6 |
| 20260505023246 | 70 | 246 | 10.4 | 15.6 | 0.00 | 0.00 | 0.00 | 21 | 1012.7 |
| 20260505022743 | 70 | 276 | 11.3 | 16.5 | 0.00 | 0.00 | 0.00 | 21 | 1012.7 |
| 20260505022240 | 70 | 263 | 10.4 | 13.0 | 0.00 | 0.00 | 0.00 | 20 | 1012.8 |
| 20260505021737 | 70 | 281 | 7.8 | 13.0 | 0.00 | 0.00 | 0.00 | 20 | 1012.6 |
| 20260505021234 | 71 | 256 | 7.0 | 12.2 | 0.00 | 0.00 | 0.00 | 20 | 1012.7 |
| 20260505020730 | 71 | 283 | 11.3 | 14.8 | 0.00 | 0.00 | 0.00 | 20 | 1012.6 |
| 20260505020225 | 71 | 254 | 7.8 | 12.2 | 0.00 | 0.00 | 0.00 | 20 | 1012.6 |
| 20260505015723 | 71 | 298 | 13.0 | 14.8 | 0.00 | 0.00 | 0.00 | 20 | 1012.2 |
| 20260505015220 | 71 | 268 | 7.8 | 9.6 | 0.00 | 0.00 | 0.00 | 21 | 1012.0 |
| 20260505014716 | 71 | 284 | 7.0 | 8.7 | 0.00 | 0.00 | 0.00 | 21 | 1012.1 |
| 20260505014214 | 71 | 271 | 7.8 | 11.3 | 0.00 | 0.00 | 0.00 | 20 | 1012.1 |
| 20260505013710 | 71 | 272 | 7.8 | 9.6 | 0.00 | 0.00 | 0.00 | 20 | 1012.2 |
| 20260505013208 | 71 | 296 | 8.7 | 9.6 | 0.00 | 0.00 | 0.00 | 20 | 1012.2 |
| 20260505012706 | 72 | 263 | 8.7 | 11.3 | 0.00 | 0.00 | 0.00 | 20 | 1012.1 |
| 20260505012203 | 72 | 242 | 7.0 | 11.3 | 0.00 | 0.00 | 0.00 | 20 | 1011.8 |
| 20260505011658 | 72 | 278 | 7.8 | 15.6 | 0.00 | 0.00 | 0.00 | 19 | 1011.8 |
| 20260505011156 | 72 | 265 | 9.6 | 16.5 | 0.00 | 0.00 | 0.00 | 19 | 1011.8 |
| 20260505010651 | 73 | 243 | 7.8 | 11.3 | 0.00 | 0.00 | 0.00 | 18 | 1011.9 |
| 20260505010148 | 73 | 305 | 7.8 | 13.0 | 0.00 | 0.00 | 0.00 | 18 | 1011.9 |
| 20260505005644 | 73 | 279 | 8.7 | 13.0 | 0.00 | 0.00 | 0.00 | 17 | 1012.0 |
| 20260505005141 | 73 | 245 | 3.5 | 7.0 | 0.00 | 0.00 | 0.00 | 17 | 1012.0 |
| 20260505004638 | 74 | 270 | 6.1 | 9.6 | 0.00 | 0.00 | 0.00 | 16 | 1012.0 |
| 20260505004135 | 74 | 256 | 3.5 | 7.8 | 0.00 | 0.00 | 0.00 | 16 | 1012.0 |
| 20260505003632 | 74 | 287 | 7.8 | 9.6 | 0.00 | 0.00 | 0.00 | 15 | 1012.0 |
| 20260505003130 | 74 | 280 | 7.8 | 11.3 | 0.00 | 0.00 | 0.00 | 16 | 1012.2 |
| 20260505002626 | 74 | 237 | 6.1 | 13.9 | 0.00 | 0.00 | 0.00 | 15 | 1012.1 |
| 20260505002124 | 74 | 251 | 7.0 | 8.7 | 0.00 | 0.00 | 0.00 | 15 | 1012.0 |
| 20260505001621 | 75 | 195 | 5.2 | 11.3 | 0.00 | 0.00 | 0.00 | 15 | 1012.0 |
| 20260505001118 | 75 | 223 | 9.6 | 13.0 | 0.00 | 0.00 | 0.00 | 15 | 1012.1 |
| 20260505000616 | 75 | 250 | 6.1 | 12.2 | 0.00 | 0.00 | 0.00 | 15 | 1012.1 |
| 20260505000113 | 75 | 252 | 9.6 | 11.3 | 0.00 | 0.00 | 0.00 | 13 | 1011.9 |
| 20260504235609 | 75 | 236 | 7.0 | 11.3 | 0.00 | 0.00 | 0.00 | 14 | 1012.0 |
| 20260504235106 | 75 | 206 | 7.8 | 13.9 | 0.00 | 0.00 | 0.00 | 14 | 1011.9 |
| 20260504234603 | 75 | 230 | 7.8 | 12.2 | 0.00 | 0.00 | 0.00 | 14 | 1012.0 |
| 20260504234101 | 75 | 236 | 5.2 | 9.6 | 0.00 | 0.00 | 0.00 | 13 | 1012.2 |
| 20260504233601 | 75 | 250 | 8.7 | 13.0 | 0.00 | 0.00 | 0.00 | 13 | 1012.2 |
| 20260504233058 | 75 | 260 | 7.0 | 9.6 | 0.00 | 0.00 | 0.00 | 13 | 1012.2 |
| 20260504232555 | 75 | 239 | 7.8 | 13.0 | 0.00 | 0.00 | 0.00 | 13 | 1012.3 |
| 20260504232053 | 75 | 226 | 7.8 | 12.2 | 0.00 | 0.00 | 0.00 | 13 | 1012.2 |
| 20260504231549 | 74 | 244 | 5.2 | 9.6 | 0.00 | 0.00 | 0.00 | 13 | 1012.3 |
| 20260504231045 | 75 | 242 | 7.0 | 12.2 | 0.00 | 0.00 | 0.00 | 13 | 1012.0 |
| 20260504230541 | 75 | 231 | 6.1 | 13.9 | 0.00 | 0.00 | 0.00 | 13 | 1012.3 |
| 20260504230041 | 75 | 207 | 7.8 | 13.0 | 0.00 | 0.00 | 0.00 | 13 | 1012.2 |
| 20260504225537 | 75 | 237 | 12.2 | 15.6 | 0.00 | 0.00 | 0.00 | 13 | 1012.0 |
| 20260504225034 | 75 | 246 | 5.2 | 13.0 | 0.00 | 0.00 | 0.00 | 13 | 1012.2 |
| 20260504224531 | 75 | 225 | 9.6 | 15.6 | 0.00 | 0.00 | 0.00 | 12 | 1012.3 |
| 20260504224028 | 75 | 249 | 7.0 | 13.9 | 0.00 | 0.00 | 0.00 | 13 | 1012.1 |
| 20260504223525 | 76 | 207 | 7.8 | 12.2 | 0.00 | 0.00 | 0.00 | 12 | 1012.3 |
| 20260504223020 | 76 | 255 | 10.4 | 14.8 | 0.00 | 0.00 | 0.00 | 12 | 1012.2 |
| 20260504222517 | 76 | 220 | 10.4 | 13.0 | 0.00 | 0.00 | 0.00 | 12 | 1012.5 |
| 20260504222015 | 76 | 237 | 7.8 | 11.3 | 0.00 | 0.00 | 0.00 | 13 | 1012.3 |
| 20260504221512 | 75 | 267 | 7.8 | 15.6 | 0.00 | 0.00 | 0.00 | 13 | 1012.3 |
| 20260504221009 | 76 | 240 | 7.8 | 18.2 | 0.00 | 0.00 | 0.00 | 13 | 1012.6 |
| 20260504220505 | 75 | 229 | 7.0 | 14.8 | 0.00 | 0.00 | 0.00 | 14 | 1012.3 |
| 20260504220002 | 75 | 206 | 9.6 | 15.6 | 0.00 | 0.00 | 0.00 | 14 | 1012.8 |
| 20260504215459 | 76 | 221 | 7.8 | 14.8 | 0.00 | 0.00 | 0.00 | 13 | 1012.8 |
| 20260504214956 | 76 | 217 | 4.3 | 8.7 | 0.00 | 0.00 | 0.00 | 14 | 1012.9 |
| 20260504214452 | 76 | 204 | 2.6 | 8.7 | 0.00 | 0.00 | 0.00 | 14 | 1012.8 |
| 20260504213949 | 76 | 228 | 8.7 | 12.2 | 0.00 | 0.00 | 0.00 | 14 | 1012.9 |
| 20260504213444 | 76 | 231 | 5.2 | 8.7 | 0.00 | 0.00 | 0.00 | 15 | 1013.1 |
| 20260504212942 | 75 | 233 | 4.3 | 11.3 | 0.00 | 0.00 | 0.00 | 15 | 1013.1 |
| 20260504212438 | 76 | 243 | 9.6 | 12.2 | 0.00 | 0.00 | 0.00 | 15 | 1013.2 |
| 20260504211936 | 75 | 250 | 6.1 | 7.8 | 0.00 | 0.00 | 0.00 | 15 | 1013.2 |
| 20260504211432 | 76 | 255 | 2.6 | 6.1 | 0.00 | 0.00 | 0.00 | 16 | 1013.1 |
| 20260504210930 | 76 | 239 | 5.2 | 7.8 | 0.00 | 0.00 | 0.00 | 16 | 1013.3 |
| 20260504210426 | 76 | 280 | 3.5 | 5.2 | 0.00 | 0.00 | 0.00 | 16 | 1013.5 |
| 20260504205923 | 75 | 203 | 5.2 | 7.8 | 0.00 | 0.00 | 0.00 | 16 | 1013.6 |
| 20260504205421 | 75 | 216 | 4.3 | 12.2 | 0.00 | 0.00 | 0.00 | 17 | 1013.9 |
| 20260504204919 | 75 | 206 | 8.7 | 15.6 | 0.00 | 0.00 | 0.00 | 16 | 1014.2 |
| 20260504204417 | 75 | 251 | 7.0 | 13.9 | 0.00 | 0.00 | 0.00 | 17 | 1014.3 |
| 20260504203916 | 75 | 239 | 8.7 | 13.0 | 0.00 | 0.00 | 0.00 | 17 | 1014.2 |
| 20260504203413 | 74 | 234 | 7.8 | 9.6 | 0.00 | 0.00 | 0.00 | 17 | 1014.5 |
| 20260504202909 | 73 | 219 | 5.2 | 7.8 | 0.00 | 0.00 | 0.00 | 18 | 1014.6 |
| 20260504202406 | 74 | 269 | 9.6 | 13.9 | 0.00 | 0.00 | 0.00 | 17 | 1014.8 |
| 20260504201902 | 74 | 260 | 6.1 | 8.7 | 0.00 | 0.00 | 0.00 | 17 | 1014.7 |
| 20260504201400 | 75 | 241 | 11.3 | 16.5 | 0.00 | 0.00 | 0.00 | 16 | 1014.8 |
| 20260504200857 | 75 | 202 | 6.1 | 9.6 | 0.00 | 0.00 | 0.00 | 18 | 1014.9 |
| 20260504200354 | 74 | 205 | 6.1 | 13.0 | 0.00 | 0.00 | 0.00 | 17 | 1014.7 |
| 20260504195850 | 74 | 250 | 4.3 | 5.2 | 0.00 | 0.00 | 0.00 | 17 | 1014.9 |
| 20260504195346 | 74 | 343 | 1.7 | 2.6 | 0.00 | 0.00 | 0.00 | 17 | 1014.9 |
| 20260504194843 | 73 | 243 | 7.0 | 12.2 | 0.00 | 0.00 | 0.00 | 18 | 1015.2 |
| 20260504194339 | 74 | 257 | 5.2 | 9.6 | 0.00 | 0.00 | 0.00 | 18 | 1015.4 |
| 20260504193835 | 74 | 190 | 2.6 | 3.5 | 0.00 | 0.00 | 0.00 | 18 | 1015.2 |
| 20260504193332 | 74 | 159 | 4.3 | 7.8 | 0.00 | 0.00 | 0.00 | 20 | 1015.4 |
| 20260504192831 | 72 | 153 | 3.5 | 6.1 | 0.00 | 0.00 | 0.00 | 18 | 1015.5 |
| 20260504192329 | 72 | 237 | 6.1 | 13.9 | 0.00 | 0.00 | 0.00 | 18 | 1015.5 |
| 20260504191827 | 73 | 230 | 5.2 | 11.3 | 0.00 | 0.00 | 0.00 | 18 | 1015.7 |
| 20260504191324 | 73 | 224 | 3.5 | 5.2 | 0.00 | 0.00 | 0.00 | 19 | 1015.7 |
| 20260504190819 | 72 | 170 | 1.7 | 2.6 | 0.00 | 0.00 | 0.00 | 20 | 1015.6 |
| 20260504190316 | 71 | 249 | 5.2 | 11.3 | 0.00 | 0.00 | 0.00 | 19 | 1016.0 |
| 20260504185812 | 72 | 174 | 4.3 | 9.6 | 0.00 | 0.00 | 0.00 | 20 | 1015.9 |
| 20260504185309 | 73 | 157 | 5.2 | 7.8 | 0.00 | 0.00 | 0.00 | 20 | 1016.0 |
| 20260504184805 | 72 | 235 | 3.5 | 9.6 | 0.00 | 0.00 | 0.00 | 21 | 1016.1 |
| 20260504184301 | 71 | 231 | 4.3 | 7.8 | 0.00 | 0.00 | 0.00 | 20 | 1016.2 |
| 20260504183757 | 70 | 217 | 3.5 | 7.0 | 0.00 | 0.00 | 0.00 | 20 | 1016.4 |
| 20260504183254 | 71 | 268 | 5.2 | 12.2 | 0.00 | 0.00 | 0.00 | 20 | 1016.3 |
| 20260504182752 | 70 | 185 | 4.3 | 6.1 | 0.00 | 0.00 | 0.00 | 21 | 1016.4 |
| 20260504182249 | 70 | 218 | 5.2 | 11.3 | 0.00 | 0.00 | 0.00 | 20 | 1016.6 |
| 20260504181747 | 71 | 256 | 9.6 | 13.0 | 0.00 | 0.00 | 0.00 | 20 | 1016.4 |
| 20260504181244 | 71 | 232 | 7.0 | 8.7 | 0.00 | 0.00 | 0.00 | 19 | 1016.3 |
| 20260504180743 | 70 | 230 | 7.0 | 13.0 | 0.00 | 0.00 | 0.00 | 20 | 1016.6 |
| 20260504180241 | 70 | 247 | 4.3 | 7.0 | 0.00 | 0.00 | 0.00 | 19 | 1016.4 |
| 20260504175739 | 70 | 217 | 5.2 | 7.0 | 0.00 | 0.00 | 0.00 | 19 | 1016.8 |
| 20260504175235 | 69 | 185 | 6.1 | 9.6 | 0.00 | 0.00 | 0.00 | 19 | 1016.9 |
| 20260504174733 | 69 | 243 | 5.2 | 7.8 | 0.00 | 0.00 | 0.00 | 22 | 1016.7 |
| 20260504174231 | 70 | 217 | 2.6 | 9.6 | 0.00 | 0.00 | 0.00 | 22 | 1016.8 |
| 20260504173727 | 69 | 282 | 5.2 | 7.0 | 0.00 | 0.00 | 0.00 | 21 | 1016.9 |
| 20260504173224 | 69 | 212 | 7.8 | 11.3 | 0.00 | 0.00 | 0.00 | 21 | 1017.0 |
| 20260504172721 | 69 | 236 | 9.6 | 12.2 | 0.00 | 0.00 | 0.00 | 20 | 1016.9 |
| 20260504172217 | 69 | 262 | 5.2 | 7.0 | 0.00 | 0.00 | 0.00 | 20 | 1017.0 |
| 20260504171714 | 69 | 227 | 5.2 | 11.3 | 0.00 | 0.00 | 0.00 | 21 | 1017.2 |
| 20260504171211 | 69 | 224 | 5.2 | 7.0 | 0.00 | 0.00 | 0.00 | 20 | 1017.4 |
| 20260504170707 | 69 | 269 | 7.8 | 8.7 | 0.00 | 0.00 | 0.00 | 19 | 1016.8 |
| 20260504170205 | 68 | 279 | 7.8 | 8.7 | 0.00 | 0.00 | 0.00 | 20 | 1017.0 |
| 20260504160124 | 66 | 256 | 5.2 | 8.7 | 0.00 | 0.00 | 0.00 | 24 | 1017.3 |
| 20260504151051 | 62 | 174 | 1.7 | 6.1 | 0.00 | 0.00 | 0.00 | 47 | 1017.6 |
| 20260504150548 | 62 | 192 | 3.5 | 5.2 | 0.00 | 0.00 | 0.00 | 46 | 1017.7 |